Regional Weather Roundup
Issued by NWS

Home | Current Version | Previous Version | Text Only | Print | Product List | Glossary Off
Versions: 1 2 3 4 5 6 7 8 9 10 11 12 13 14 15 16 17 18 19 20 21 22 23 24 25 26 27 28 29 30 31 32 33 34 35 36 37 38 39 40 41 42 43 44 45 46 47 48 49 50

242
ASUS43 KIND 080409
RWRIN

WEATHER ROUNDUP FOR INDIANA
NATIONAL WEATHER SERVICE INDIANAPOLIS IN
1100 PM EST WED DEC 07 2016

NOTE: "FAIR" INDICATES FEW OR NO CLOUDS BELOW 12,000 FEET WITH NO
SIGNIFICANT WEATHER AND/OR OBSTRUCTIONS TO VISIBILITY.

* - STATION DOES NOT REPORT WEATHER SUCH AS PRECIPITATION OR FOG.

+ - STATION NOT QUALITY CONTROLLED BY THE NATIONAL WEATHER SERVICE.
    USE DATA WITH CAUTION...ESPECIALLY DEWPOINT AND RELATIVE
    HUMIDITY OBSERVATIONS.

INZ001>003-010>013-019-020-080500-
NORTHWEST INDIANA

CITY           SKY/WX    TMP DP  RH WIND       PRES   REMARKS
GARY /AIRPORT/ CLOUDY    25  16  68 W17G29    30.17R WCI  12
KNOX *+        MOCLDY    27   1  33 W17G24    30.15R WCI  14
LA PORTE +     CLOUDY    24  17  74 W12G21    30.14R WCI  13
MICHIGAN CITY+ CLOUDY    27  19  74 W15G24    30.14R WCI  15
MONTICELLO +   CLEAR     25  14  63 W16G23    30.18R WCI  12
RENSSELAER +     N/A     27  21  80 W16G24    30.18R WCI  14
VALPARAISO     CLOUDY    24  16  71 W22       30.15R WCI   9

$$

LMZ046-743>745-080500-
SOUTHERN LAKE MICHIGAN

STATION/POSITION TIME  TEMP    WIND        PRES    WAVE
                       AIR SEA DIR/SP/G            HT
                 (UTC) (F)     (DEG/KT/KT) (MB)    (FT)
BURNS HARBOR     0341   26     270/ 22     1021.0S
MICHIGAN CITY    0340   26     240/ 27/ 31   N/A

$$

INZ004-005-014>016-021>024-080500-
NORTH CENTRAL INDIANA

CITY           SKY/WX    TMP DP  RH WIND       PRES   REMARKS
GOSHEN         CLOUDY    26  18  71 W14       30.11S WCI  14
LOGANSPORT +   MOCLDY    27  21  80 W15G23    30.17R WCI  15
PERU/GRISSOM   CLEAR     26  20  77 W16       30.14S WCI  14
ROCHESTER +    PTCLDY    28  23  80 W14G23    30.14R WCI  17
SOUTH BEND     CLOUDY    25  19  78 W13G21    30.11F WCI  14
WARSAW +       CLOUDY    27  18  69 W16G24    30.12R WCI  14

$$

INZ006>009-017-018-025>027-080500-
NORTHEAST INDIANA

CITY           SKY/WX    TMP DP  RH WIND       PRES   REMARKS
ANGOLA *+      CLOUDY    27  19  74 W12       30.06S WCI  16
AUBURN +       PTCLDY    28  21  74 W13       30.10S WCI  18
FORT WAYNE     MOCLDY    28  21  75 W14       30.12R WCI  17
HUNTINGTON +   CLEAR     27  19  72 W18G30    30.13R WCI  13
KENDALLVILLE + CLOUDY    27  19  73 W14G25    30.09S WCI  15

$$

INZ028-029-035-036-043>045-051>053-080500-
WEST CENTRAL INDIANA

CITY           SKY/WX    TMP DP  RH WIND       PRES   REMARKS
CRAWFORDSVL +  CLEAR     26  20  79 W14G22    30.20R WCI  14
GREENCASTLE +  PTCLDY    28  27  93 W6        30.21R WCI  22
LAFAYETTE      CLEAR     26  19  74 W13       30.20R WCI  15
TERRE HAUTE    MOCLDY    30  21  69 NW12      30.24R WCI  20

$$

INZ030>032-037>040-046>048-054>057-064-065-080500-
CENTRAL INDIANA

CITY           SKY/WX    TMP DP  RH WIND       PRES   REMARKS
CP ATTERBURY + MOCLDY    32  23  69 W8        30.20R WCI  25
FRANKFORT +    PTCLDY    30  23  76 NW15      30.19R WCI  19
GREENWOOD *+   CLEAR     31  24  75 W8        30.19S WCI  23
INDIANAPOLIS   PTCLDY    27  21  78 W10       30.18S WCI  17
-EAGLE CREEK   CLEAR     29  21  72 W8        30.17S WCI  21
KOKOMO +       CLEAR     27  21  78 W21       30.16R WCI  13
MARION +       CLOUDY    29  24  79 NW13      30.15R WCI  19
MT COMFORT *+  CLEAR     28  21  74 W12       30.17S WCI  18
SHELBYVILLE    PTCLDY    31  21  66 W10       30.18R WCI  22
ZIONSVILLE +   CLEAR     28  22  80 W10       30.18R WCI  18

$$

INZ033-034-041-042-049-050-058-059-080500-
EAST CENTRAL INDIANA

CITY           SKY/WX    TMP DP  RH WIND       PRES   REMARKS
MUNCIE         PTCLDY    30  23  75 W13       30.15R WCI  20

$$

INZ060-061-067>069-081>083-085>088-080500-
SOUTHWEST INDIANA

CITY           SKY/WX    TMP DP  RH WIND       PRES   REMARKS
EVANSVILLE     CLOUDY    35  22  58 NW5       30.27R WCI  31
HUNTINGBURG *+ CLOUDY    34  23  64 NW8       30.24R WCI  27
WASHINGTON +   CLOUDY    32  26  77 NW6       30.25R WCI  27

$$

INZ062-063-066-070>080-084-089>092-080500-
SOUTH CENTRAL AND SOUTHEAST INDIANA

CITY           SKY/WX    TMP DP  RH WIND       PRES   REMARKS
BLOOMINGTON    MOCLDY    31  21  66 W9        30.20R WCI  23
MADISON *+     CLOUDY    34  25  69 W5        30.21R WCI  30
NORTH VERNON + CLOUDY    34  28  80 W7        30.20R WCI  28
SEYMOUR +      CLOUDY    36  23  60 NW5       30.20R

$$





USA.gov is the U.S. government's official web portal to all federal, state and local government web resources and services.